LGL277 ELLX-LFKJ

Flight info

Callsign LGL277
Flight time 1h 15m
Altitude 37000
Route GTQ A242 POGOL DCT LASAT DCT MOROK DCT GILIR DCT GEVEA DCT KOGAS DCT MEDAM DCT VEVAR DCT BARSO DCT KOLON DCT OMARD M623 VAREK
Aircraft B737/M-SDE2E3FGHIRWXY/LB1

Departure

Time 2026-04-23 14:07
Airport Luxembourg-Findel International Airport (ELLX)

Arrival

Time 2026-04-23 15:22
Airport Ajaccio Napoléon Bonaparte airport (LFKJ)
Time Latitude Longitude Altitude Speed Heading
2026-04-23 13:41 49.63130 6.21431 1237 ft 0 kts 60°
2026-04-23 13:57 49.63129 6.21427 1237 ft 3 kts 60°
2026-04-23 13:57 49.63118 6.21390 1253 ft 4 kts 78°
2026-04-23 13:58 49.63117 6.21351 1253 ft 4 kts 115°
2026-04-23 13:58 49.63127 6.21331 1246 ft 0 kts 150°
2026-04-23 14:01 49.63095 6.21353 1242 ft 8 kts 159°
2026-04-23 14:02 49.63041 6.21398 1241 ft 10 kts 150°
2026-04-23 14:02 49.62986 6.21346 1241 ft 12 kts 244°
2026-04-23 14:02 49.62943 6.21212 1247 ft 15 kts 244°
2026-04-23 14:02 49.62899 6.21070 1242 ft 16 kts 244°
2026-04-23 14:03 49.62859 6.20944 1245 ft 12 kts 244°
2026-04-23 14:03 49.62824 6.20830 1243 ft 12 kts 244°
2026-04-23 14:03 49.62773 6.20718 1245 ft 13 kts 225°
2026-04-23 14:03 49.62704 6.20630 1241 ft 13 kts 217°
2026-04-23 14:04 49.62637 6.20533 1247 ft 15 kts 227°
2026-04-23 14:04 49.62560 6.20400 1240 ft 18 kts 229°
2026-04-23 14:04 49.62484 6.20243 1231 ft 19 kts 240°
2026-04-23 14:04 49.62415 6.20063 1222 ft 20 kts 240°
2026-04-23 14:05 49.62343 6.19870 1212 ft 21 kts 240°
2026-04-23 14:05 49.62280 6.19703 1203 ft 19 kts 240°
2026-04-23 14:05 49.62224 6.19561 1196 ft 12 kts 222°
2026-04-23 14:05 49.62164 6.19570 1196 ft 8 kts 150°
2026-04-23 14:06 49.62116 6.19610 1200 ft 8 kts 152°
2026-04-23 14:06 49.62094 6.19676 1203 ft 9 kts 60°
2026-04-23 14:06 49.62142 6.19807 1210 ft 35 kts 60°
2026-04-23 14:06 49.62278 6.20172 1226 ft 83 kts 60°
2026-04-23 14:07 49.62676 6.21238 1251 ft 145 kts 60°
2026-04-23 14:07 49.63875 6.24486 2386 ft 182 kts 59°
2026-04-23 14:07 49.64441 6.26227 3349 ft 185 kts 74°
2026-04-23 14:08 49.64285 6.28286 3845 ft 215 kts 119°
2026-04-23 14:08 49.63196 6.30008 4408 ft 232 kts 138°
2026-04-23 14:08 49.61886 6.31654 4933 ft 259 kts 138°
2026-04-23 14:08 49.60469 6.33480 5811 ft 268 kts 137°
2026-04-23 14:09 49.59048 6.35362 6914 ft 271 kts 137°
2026-04-23 14:09 49.57616 6.37286 7908 ft 275 kts 136°
2026-04-23 14:09 49.56160 6.39248 8731 ft 281 kts 139°
2026-04-23 14:09 49.54521 6.40777 9123 ft 271 kts 154°
2026-04-23 14:10 49.52788 6.41924 9115 ft 274 kts 155°
2026-04-23 14:10 49.50973 6.43082 9454 ft 291 kts 158°
2026-04-23 14:10 49.49065 6.44149 10418 ft 294 kts 159°
2026-04-23 14:10 49.47124 6.45197 11305 ft 298 kts 159°
2026-04-23 14:11 49.45157 6.46256 12182 ft 302 kts 159°
2026-04-23 14:11 49.43114 6.47362 12659 ft 324 kts 159°
2026-04-23 14:11 49.40901 6.48567 12910 ft 349 kts 159°
2026-04-23 14:11 49.38574 6.49838 13576 ft 360 kts 159°
2026-04-23 14:12 49.36196 6.51136 14426 ft 365 kts 159°
2026-04-23 14:12 49.33795 6.52449 15308 ft 367 kts 159°
2026-04-23 14:12 49.31389 6.53765 16269 ft 368 kts 159°
2026-04-23 14:12 49.28962 6.55093 17168 ft 372 kts 159°
2026-04-23 14:13 49.26513 6.56432 18033 ft 376 kts 159°
2026-04-23 14:13 49.24037 6.57784 18849 ft 380 kts 158°
2026-04-23 14:13 49.21536 6.59149 19613 ft 383 kts 159°
2026-04-23 14:13 49.19017 6.60522 20387 ft 386 kts 158°
2026-04-23 14:14 49.16476 6.61906 21141 ft 389 kts 158°
2026-04-23 14:14 49.13913 6.63300 21886 ft 393 kts 158°
2026-04-23 14:14 49.11326 6.64706 22595 ft 397 kts 158°
2026-04-23 14:14 49.08749 6.66105 23273 ft 401 kts 158°
2026-04-23 14:15 49.06100 6.67542 23976 ft 404 kts 158°
2026-04-23 14:15 49.03442 6.68982 24582 ft 407 kts 158°
2026-04-23 14:15 49.00765 6.70409 25209 ft 409 kts 160°
2026-04-23 14:15 48.97976 6.71369 25807 ft 414 kts 169°
2026-04-23 14:16 48.95085 6.71681 26390 ft 420 kts 178°
2026-04-23 14:16 48.92159 6.71452 26959 ft 423 kts 180°
2026-04-23 14:16 48.89210 6.71115 27500 ft 426 kts 181°
2026-04-23 14:16 48.86244 6.70744 28037 ft 429 kts 181°
2026-04-23 14:17 48.83302 6.70378 28546 ft 432 kts 180°
2026-04-23 14:17 48.80256 6.70010 29064 ft 434 kts 180°
2026-04-23 14:17 48.77238 6.69659 29554 ft 437 kts 180°
2026-04-23 14:17 48.74201 6.69316 30078 ft 438 kts 180°
2026-04-23 14:18 48.71169 6.68979 30716 ft 435 kts 180°
2026-04-23 14:18 48.68171 6.68648 31355 ft 431 kts 179°
2026-04-23 14:18 48.65190 6.68322 31909 ft 429 kts 179°
2026-04-23 14:18 48.62210 6.67999 32371 ft 429 kts 179°
2026-04-23 14:19 48.59231 6.67677 32837 ft 429 kts 179°
2026-04-23 14:19 48.56264 6.67357 33349 ft 427 kts 179°
2026-04-23 14:19 48.53309 6.67038 33864 ft 425 kts 179°
2026-04-23 14:19 48.50365 6.66721 34325 ft 424 kts 179°
2026-04-23 14:20 48.47424 6.66404 34692 ft 423 kts 179°
2026-04-23 14:20 48.44486 6.66088 35045 ft 423 kts 179°
2026-04-23 14:20 48.41546 6.65773 35382 ft 424 kts 179°
2026-04-23 14:20 48.38607 6.65458 35726 ft 423 kts 179°
2026-04-23 14:21 48.35675 6.65143 36071 ft 422 kts 179°
2026-04-23 14:21 48.32744 6.64829 36397 ft 422 kts 179°
2026-04-23 14:21 48.29814 6.64515 36702 ft 422 kts 179°
2026-04-23 14:21 48.26883 6.64202 37016 ft 422 kts 179°
2026-04-23 14:22 48.23956 6.63889 37317 ft 423 kts 179°
2026-04-23 14:22 48.20995 6.63577 37277 ft 430 kts 179°
2026-04-23 14:22 48.14991 6.62943 37292 ft 439 kts 179°
2026-04-23 14:23 48.08839 6.62287 37282 ft 441 kts 179°
2026-04-23 14:23 48.02769 6.61641 37289 ft 440 kts 180°
2026-04-23 14:24 47.96668 6.60992 37278 ft 439 kts 180°
2026-04-23 14:24 47.90580 6.60349 37267 ft 438 kts 180°
2026-04-23 14:25 47.84507 6.59710 37275 ft 437 kts 180°
2026-04-23 14:25 47.78453 6.59074 37281 ft 435 kts 180°
2026-04-23 14:26 47.72417 6.58442 37269 ft 434 kts 180°
2026-04-23 14:26 47.66398 6.57813 37270 ft 433 kts 180°
2026-04-23 14:27 47.60394 6.57187 37273 ft 432 kts 180°
2026-04-23 14:27 47.54397 6.56564 37267 ft 432 kts 180°
2026-04-23 14:28 47.48408 6.55942 37274 ft 432 kts 180°
2026-04-23 14:28 47.42417 6.55322 37267 ft 432 kts 180°
2026-04-23 14:29 47.36420 6.54703 37268 ft 432 kts 181°
2026-04-23 14:29 47.30419 6.54084 37269 ft 432 kts 181°
2026-04-23 14:30 47.24412 6.53467 37265 ft 433 kts 181°
2026-04-23 14:30 47.18395 6.52849 37266 ft 434 kts 181°
2026-04-23 14:31 47.12409 6.52236 37261 ft 435 kts 181°
2026-04-23 14:31 47.06380 6.52020 37256 ft 432 kts 173°
2026-04-23 14:32 47.00396 6.52850 37245 ft 432 kts 171°
2026-04-23 14:32 46.94368 6.53741 37253 ft 433 kts 172°
2026-04-23 14:33 46.88408 6.54571 37264 ft 434 kts 172°
2026-04-23 14:33 46.82388 6.55374 37255 ft 435 kts 172°
2026-04-23 14:34 46.76357 6.56167 37253 ft 436 kts 172°
2026-04-23 14:34 46.70315 6.56959 37255 ft 436 kts 172°
2026-04-23 14:35 46.64266 6.57750 37258 ft 436 kts 172°
2026-04-23 14:35 46.58215 6.58540 37261 ft 437 kts 172°
2026-04-23 14:36 46.52163 6.59328 37248 ft 437 kts 172°
2026-04-23 14:36 46.46109 6.60116 37253 ft 436 kts 172°
2026-04-23 14:37 46.40063 6.60900 37247 ft 436 kts 172°
2026-04-23 14:37 46.34014 6.61683 37235 ft 437 kts 172°
2026-04-23 14:38 46.27969 6.62464 37250 ft 435 kts 172°
2026-04-23 14:38 46.21927 6.63243 37253 ft 437 kts 172°
2026-04-23 14:39 46.15861 6.64024 37248 ft 439 kts 172°
2026-04-23 14:39 46.09763 6.64807 37232 ft 441 kts 172°
2026-04-23 14:40 46.03639 6.65591 37235 ft 442 kts 172°
2026-04-23 14:40 45.97504 6.66374 37224 ft 442 kts 172°
2026-04-23 14:41 45.91359 6.67157 37219 ft 444 kts 173°
2026-04-23 14:41 45.85193 6.67942 37226 ft 445 kts 173°
2026-04-23 14:42 45.79008 6.68727 37226 ft 446 kts 173°
2026-04-23 14:42 45.72812 6.69512 37224 ft 447 kts 173°
2026-04-23 14:43 45.66612 6.70296 37220 ft 447 kts 172°
2026-04-23 14:43 45.60420 6.71075 37206 ft 441 kts 173°
2026-04-23 14:44 45.57416 6.71450 37198 ft 426 kts 173°
2026-04-23 14:44 45.54514 6.71811 37189 ft 412 kts 173°
2026-04-23 14:44 45.51706 6.72161 37195 ft 398 kts 173°
2026-04-23 14:44 45.48992 6.72500 37192 ft 385 kts 172°
2026-04-23 14:45 45.46366 6.72829 37196 ft 373 kts 172°
2026-04-23 14:45 45.43825 6.73146 37188 ft 361 kts 172°
2026-04-23 14:45 45.41370 6.73453 37192 ft 348 kts 172°
2026-04-23 14:45 45.38995 6.73750 37193 ft 340 kts 172°
2026-04-23 14:46 45.34128 6.74368 36940 ft 366 kts 172°
2026-04-23 14:46 45.28929 6.75024 37020 ft 382 kts 173°
2026-04-23 14:47 45.26260 6.75357 37124 ft 389 kts 173°
2026-04-23 14:47 45.23541 6.75695 37185 ft 396 kts 173°
2026-04-23 14:47 45.17931 6.76392 37226 ft 413 kts 173°
2026-04-23 14:48 45.12085 6.77119 37227 ft 430 kts 173°
2026-04-23 14:48 45.06020 6.77867 37220 ft 445 kts 173°
2026-04-23 14:49 44.99762 6.78636 37215 ft 456 kts 173°
2026-04-23 14:49 44.93386 6.79419 37211 ft 465 kts 174°
2026-04-23 14:50 44.86893 6.80216 37193 ft 469 kts 174°
2026-04-23 14:50 44.80447 6.81004 37195 ft 468 kts 174°
2026-04-23 14:51 44.73962 6.81800 37206 ft 468 kts 174°
2026-04-23 14:51 44.67465 6.82594 37193 ft 469 kts 174°
2026-04-23 14:52 44.60954 6.83384 37205 ft 470 kts 174°
2026-04-23 14:52 44.54440 6.84174 37203 ft 470 kts 174°
2026-04-23 14:53 44.47926 6.84965 37206 ft 469 kts 174°
2026-04-23 14:53 44.41423 6.85750 37206 ft 469 kts 174°
2026-04-23 14:54 44.34919 6.86537 37197 ft 469 kts 174°
2026-04-23 14:54 44.29508 6.87188 37191 ft 470 kts 174°
2026-04-23 14:55 44.22993 6.87969 37197 ft 470 kts 174°
2026-04-23 14:55 44.16472 6.88794 37202 ft 471 kts 171°
2026-04-23 14:56 44.10219 6.91352 37198 ft 469 kts 155°
2026-04-23 14:56 44.04263 6.95085 37201 ft 470 kts 154°
2026-04-23 14:57 43.98298 6.98845 37189 ft 472 kts 154°
2026-04-23 14:57 43.92288 7.02562 37203 ft 473 kts 155°
2026-04-23 14:58 43.86254 7.06246 37211 ft 474 kts 155°
2026-04-23 14:58 43.80203 7.09924 37217 ft 475 kts 155°
2026-04-23 14:59 43.74136 7.13611 37206 ft 477 kts 155°
2026-04-23 14:59 43.68045 7.17302 37211 ft 478 kts 155°
2026-04-23 15:00 43.61943 7.20990 37210 ft 479 kts 155°
2026-04-23 15:00 43.55830 7.24678 37212 ft 481 kts 155°
2026-04-23 15:01 43.49691 7.28375 37225 ft 483 kts 155°
2026-04-23 15:01 43.43522 7.32081 37225 ft 484 kts 155°
2026-04-23 15:02 43.37332 7.35791 37216 ft 486 kts 156°
2026-04-23 15:02 43.31116 7.39509 37230 ft 488 kts 156°
2026-04-23 15:03 43.24914 7.43210 37231 ft 490 kts 156°
2026-04-23 15:03 43.18651 7.46939 37223 ft 491 kts 156°
2026-04-23 15:04 43.15486 7.48821 36576 ft 500 kts 156°
2026-04-23 15:04 43.12300 7.50712 35908 ft 498 kts 156°
2026-04-23 15:04 43.09118 7.52600 35087 ft 499 kts 156°
2026-04-23 15:04 43.05926 7.54490 34223 ft 502 kts 156°
2026-04-23 15:05 43.02713 7.56391 33196 ft 504 kts 156°
2026-04-23 15:05 42.99490 7.58296 32249 ft 505 kts 156°
2026-04-23 15:05 42.96275 7.60194 31417 ft 500 kts 156°
2026-04-23 15:05 42.93073 7.62084 30350 ft 502 kts 155°
2026-04-23 15:06 42.89900 7.63954 29688 ft 491 kts 155°
2026-04-23 15:06 42.86775 7.65791 28796 ft 486 kts 155°
2026-04-23 15:06 42.83703 7.67595 28077 ft 477 kts 155°
2026-04-23 15:06 42.80676 7.69370 27372 ft 469 kts 155°
2026-04-23 15:07 42.77698 7.71115 26655 ft 462 kts 155°
2026-04-23 15:07 42.74767 7.72832 25962 ft 456 kts 155°
2026-04-23 15:07 42.71875 7.74526 25253 ft 450 kts 155°
2026-04-23 15:07 42.69017 7.76198 24567 ft 445 kts 155°
2026-04-23 15:08 42.66193 7.77848 23886 ft 439 kts 155°
2026-04-23 15:08 42.63405 7.79475 23100 ft 433 kts 154°
2026-04-23 15:08 42.60657 7.81076 22385 ft 426 kts 154°
2026-04-23 15:09 42.55338 7.84169 21710 ft 400 kts 155°
2026-04-23 15:09 42.52787 7.85651 21424 ft 401 kts 154°
2026-04-23 15:09 42.50195 7.87162 21181 ft 408 kts 154°
2026-04-23 15:09 42.47693 7.88962 20599 ft 407 kts 142°
2026-04-23 15:10 42.46241 7.90527 20262 ft 398 kts 134°
2026-04-23 15:10 42.43823 7.94158 19501 ft 386 kts 122°
2026-04-23 15:10 42.42316 7.97143 18845 ft 382 kts 121°
2026-04-23 15:10 42.40832 8.00130 18037 ft 382 kts 121°
2026-04-23 15:11 42.39352 8.03110 17337 ft 378 kts 121°
2026-04-23 15:11 42.37888 8.06033 16685 ft 373 kts 120°
2026-04-23 15:11 42.36436 8.08914 15982 ft 369 kts 121°
2026-04-23 15:11 42.34978 8.11796 15080 ft 373 kts 121°
2026-04-23 15:12 42.33462 8.14658 14204 ft 375 kts 125°
2026-04-23 15:12 42.31802 8.17390 13293 ft 377 kts 127°
2026-04-23 15:12 42.30085 8.20065 12348 ft 377 kts 127°
2026-04-23 15:12 42.28380 8.22692 11459 ft 377 kts 128°
2026-04-23 15:13 42.26658 8.25357 10579 ft 376 kts 127°
2026-04-23 15:13 42.24972 8.27985 10256 ft 361 kts 126°
2026-04-23 15:13 42.23370 8.30492 10004 ft 345 kts 127°
2026-04-23 15:13 42.21840 8.32900 9742 ft 331 kts 126°
2026-04-23 15:14 42.20372 8.35217 9478 ft 319 kts 127°
2026-04-23 15:14 42.18955 8.37459 9123 ft 310 kts 128°
2026-04-23 15:14 42.17571 8.39648 8738 ft 304 kts 127°
2026-04-23 15:14 42.16210 8.41800 8305 ft 300 kts 127°
2026-04-23 15:15 42.14864 8.43925 7878 ft 296 kts 127°
2026-04-23 15:15 42.13533 8.46027 7392 ft 294 kts 128°
2026-04-23 15:15 42.12208 8.48116 6984 ft 290 kts 128°
2026-04-23 15:15 42.10917 8.50149 6658 ft 279 kts 127°
2026-04-23 15:16 42.09683 8.52089 6231 ft 269 kts 128°
2026-04-23 15:16 42.08481 8.53979 5767 ft 262 kts 128°
2026-04-23 15:16 42.07312 8.55820 5314 ft 256 kts 129°
2026-04-23 15:16 42.06171 8.57615 4847 ft 247 kts 129°
2026-04-23 15:17 42.05077 8.59333 4346 ft 237 kts 129°
2026-04-23 15:17 42.04019 8.60994 3855 ft 233 kts 129°
2026-04-23 15:17 42.02964 8.62650 3474 ft 234 kts 130°
2026-04-23 15:17 42.01897 8.64322 3138 ft 236 kts 131°
2026-04-23 15:18 42.00913 8.66088 2968 ft 238 kts 114°
2026-04-23 15:18 42.00536 8.68172 2850 ft 219 kts 99°
2026-04-23 15:18 42.00294 8.70099 2657 ft 199 kts 99°
2026-04-23 15:18 42.00074 8.71833 2577 ft 179 kts 99°
2026-04-23 15:19 41.99870 8.73463 2529 ft 174 kts 101°
2026-04-23 15:19 41.99667 8.75048 2486 ft 172 kts 102°
2026-04-23 15:19 41.99469 8.76600 2488 ft 160 kts 101°
2026-04-23 15:19 41.99284 8.78018 2402 ft 150 kts 102°
2026-04-23 15:20 41.99167 8.78920 2322 ft 144 kts 102°
2026-04-23 15:20 41.98916 8.80700 2091 ft 149 kts 110°
2026-04-23 15:20 41.98444 8.81896 1812 ft 142 kts 140°
2026-04-23 15:20 41.97645 8.82595 1480 ft 134 kts 163°
2026-04-23 15:21 41.96746 8.82776 1169 ft 130 kts 185°
2026-04-23 15:21 41.95839 8.82433 806 ft 140 kts 207°
2026-04-23 15:21 41.94984 8.81861 504 ft 134 kts 206°
2026-04-23 15:21 41.94155 8.81345 289 ft 128 kts 206°
2026-04-23 15:22 41.93369 8.80857 135 ft 123 kts 205°
2026-04-23 15:22 41.92605 8.80380 29 ft 116 kts 204°
2026-04-23 15:22 41.91979 8.79988 18 ft 82 kts 205°
2026-04-23 15:22 41.91630 8.79772 17 ft 40 kts 205°
2026-04-23 15:23 41.91446 8.79658 17 ft 27 kts 205°
2026-04-23 15:23 41.91306 8.79570 22 ft 18 kts 205°
2026-04-23 15:23 41.91239 8.79475 23 ft 13 kts 266°
2026-04-23 15:23 41.91279 8.79404 21 ft 8 kts 329°
2026-04-23 15:24 41.91331 8.79372 28 ft 8 kts 335°
2026-04-23 15:24 41.91377 8.79347 28 ft 7 kts 339°
2026-04-23 15:24 41.91431 8.79336 25 ft 11 kts
2026-04-23 15:24 41.91512 8.79366 25 ft 13 kts 24°
2026-04-23 15:25 41.91598 8.79420 27 ft 14 kts 25°
2026-04-23 15:25 41.91679 8.79471 28 ft 4 kts 25°
2026-04-23 15:25 41.91707 8.79488 25 ft 5 kts 25°
2026-04-23 15:25 41.91755 8.79518 25 ft 9 kts 25°
2026-04-23 15:26 41.91806 8.79547 29 ft 6 kts
2026-04-23 15:26 41.91823 8.79519 25 ft 4 kts 309°
2026-04-23 15:26 41.91846 8.79507 26 ft 0 kts 345°
2026-04-23 15:26 41.91853 8.79504 28 ft 2 kts 345°
2026-04-23 15:27 41.91854 8.79504 28 ft 0 kts 345°